Theta_e
354 354 355 354 355 356 356 357 349 346 343 334 339 341 343 349 349 349 350 351 351 349 349 348 348 348 349 347 348 349 349 350 348 347 347 349 348 345 346 346 346 344 343 346 346 345 345 345 345 345 344 344 344 344 343 344 345 345 345 345 345 345 346 345 345 344 344 344 345 345 346 345 344 345 345 345 346 343 342 342 343 342 343 343 343 343 344 344 344 345 345 346 345 345 345 345 343
355 355 355 355 356 356 355 357 345 335 336 332 338 342 345 349 348 349 349 350 349 348 349 347 348 349 348 347 347 348 348 349 348 349 349 349 348 348 348 347 348 346 343 344 345 345 345 345 345 344 344 344 344 345 343 343 345 345 346 346 346 346 346 346 345 345 344 344 346 346 345 345 344 345 345 345 346 346 345 344 344 344 344 343 343 344 344 345 345 344 345 346 345 345 345 344 342
355 356 356 356 355 355 356 355 340 331 332 332 338 345 347 347 347 349 349 349 348 348 348 347 349 350 348 346 347 347 348 349 349 350 349 348 349 350 349 348 349 347 345 344 345 346 346 345 344 343 344 344 344 344 343 344 345 345 346 347 347 345 346 346 345 345 344 344 346 346 345 345 345 345 345 345 345 346 346 345 345 344 344 344 345 345 345 345 345 345 345 345 345 344 345 343 341
354 356 356 356 356 356 356 348 340 334 332 333 337 345 348 346 347 348 349 348 349 348 348 348 349 351 351 349 348 348 349 350 350 349 349 349 350 349 348 348 348 347 344 342 345 347 346 344 344 345 344 344 344 344 343 344 345 346 347 346 346 345 346 346 345 346 344 344 345 345 345 345 345 345 344 344 344 345 346 346 345 344 344 344 346 346 346 346 344 345 345 344 345 345 344 344 342
356 357 355 356 357 354 352 343 342 338 336 337 339 346 348 347 347 346 349 348 349 349 348 348 349 350 351 350 349 350 349 350 349 348 349 350 349 348 348 347 347 346 342 343 349 349 345 343 344 345 345 345 345 345 344 343 345 346 346 345 345 345 347 346 346 346 344 345 345 345 345 345 345 345 345 344 344 344 345 346 345 344 345 345 345 346 346 345 344 345 345 345 344 345 345 345 343
356 356 355 355 356 354 351 340 340 340 343 347 343 347 348 348 348 347 348 347 348 348 347 349 348 349 350 350 351 351 349 350 350 349 350 350 349 349 348 347 347 346 343 347 350 347 342 340 342 344 344 344 345 345 344 343 345 345 345 344 344 345 346 345 345 345 344 345 345 344 345 346 345 345 345 345 344 344 345 345 344 344 345 346 345 346 346 345 345 344 345 345 345 345 346 346 345
355 356 355 356 355 354 349 337 339 342 346 350 346 348 348 349 349 347 347 346 347 347 347 348 348 349 350 350 350 350 350 350 350 350 350 349 350 350 348 348 348 347 347 346 345 343 342 340 343 345 345 344 344 344 343 343 345 346 345 342 342 346 346 344 344 345 345 344 345 345 345 346 345 345 345 345 344 344 345 344 344 345 346 346 346 346 346 346 346 345 345 345 345 346 346 346 346
354 357 356 355 352 349 344 339 344 344 346 349 348 349 349 350 349 348 346 346 346 346 347 347 347 349 349 350 351 351 351 351 351 351 350 349 350 350 350 350 349 350 348 344 341 343 343 342 344 345 344 344 343 342 342 343 345 346 345 343 342 345 345 345 344 345 344 345 345 346 345 345 345 345 345 345 345 345 345 344 345 346 346 346 346 345 345 345 346 345 345 345 345 345 345 346 345
355 357 357 354 348 343 341 341 346 348 348 349 349 351 350 350 350 348 346 345 346 346 347 347 348 349 349 350 352 352 351 351 351 350 349 349 350 350 349 349 350 350 348 343 340 342 344 343 343 342 342 342 343 342 342 342 344 346 345 344 342 343 344 345 345 345 345 345 345 344 344 345 345 345 345 344 344 344 344 344 345 346 346 345 345 344 344 344 345 345 345 345 345 345 346 345 343
357 355 355 354 346 338 336 339 344 348 349 350 350 351 350 350 349 348 347 345 346 347 348 347 347 347 347 349 351 352 352 351 351 350 349 349 349 348 349 348 349 350 347 344 340 339 342 343 342 342 341 341 342 341 341 343 344 344 345 344 342 343 345 345 345 344 344 344 344 344 344 345 345 344 343 344 344 344 344 344 345 345 345 345 344 343 343 344 344 345 344 344 344 344 344 343 341
358 354 354 351 341 333 333 338 344 349 349 349 351 350 349 349 348 348 348 346 346 346 346 347 347 346 347 349 351 352 351 351 351 350 349 349 348 348 349 348 349 349 347 343 340 338 339 341 343 344 343 341 341 341 342 344 344 344 344 343 341 342 344 344 343 343 345 344 344 344 345 345 345 343 342 342 343 343 343 344 344 344 345 344 344 343 343 343 343 344 343 343 342 342 341 340 339
356 352 354 348 338 334 337 341 344 349 349 348 349 351 349 348 348 348 347 346 346 346 347 348 347 346 346 349 352 351 351 351 350 349 349 348 348 349 348 348 349 349 346 342 341 339 338 341 342 343 344 342 340 341 343 344 345 345 344 343 342 340 342 343 344 344 344 344 344 343 344 345 343 343 343 342 343 344 343 343 344 344 345 344 343 343 343 343 343 343 343 342 341 341 340 338 338
356 352 351 346 342 341 341 343 347 348 348 349 350 352 350 349 350 347 347 345 346 346 345 347 347 346 346 351 352 350 351 350 349 348 348 348 349 349 348 348 349 348 345 341 340 339 339 340 340 340 343 343 341 342 343 344 344 345 344 343 342 340 341 343 344 344 345 345 344 343 343 344 343 342 342 342 343 344 344 343 344 344 344 343 343 343 342 343 342 342 342 342 342 343 340 337 335
356 354 352 348 345 345 344 343 345 344 344 349 351 351 350 349 349 347 348 346 346 346 346 346 345 346 348 351 351 351 351 349 348 348 348 348 349 348 349 348 348 347 344 342 340 339 340 339 339 339 342 344 342 342 343 343 344 344 344 343 343 342 341 342 344 345 345 345 344 341 342 343 343 343 341 341 342 343 343 343 343 343 343 343 343 342 342 342 343 341 341 341 342 342 338 334 334
355 354 352 348 344 344 345 345 343 342 343 349 352 351 350 349 347 348 349 346 347 347 346 346 346 345 346 348 350 351 351 348 347 347 348 348 348 348 348 348 348 347 346 345 342 340 341 340 340 340 342 344 344 344 343 343 344 344 343 342 343 344 342 339 342 345 344 345 345 342 342 343 343 343 342 342 342 342 342 342 342 342 342 342 343 342 341 342 341 341 341 341 341 339 335 333 333
354 354 350 346 344 341 344 347 344 341 345 349 351 351 350 349 348 350 349 347 347 347 347 346 345 344 344 347 350 351 350 348 348 348 348 348 348 348 348 349 349 348 347 346 344 343 343 342 342 342 343 344 346 346 344 344 344 344 343 342 343 345 343 338 337 341 344 345 345 344 342 343 342 341 342 343 343 342 342 342 341 341 341 342 343 342 342 341 340 340 340 340 339 336 334 333 334
352 354 350 344 344 341 344 347 344 343 346 350 351 351 349 348 350 350 348 348 347 347 347 346 346 345 345 348 350 351 350 349 349 348 349 348 348 347 347 348 348 348 348 347 345 345 345 344 343 344 344 344 346 346 345 345 345 345 343 342 343 344 344 340 334 336 343 345 345 344 342 342 342 341 342 343 343 343 342 341 341 341 341 341 342 342 340 339 338 337 337 336 336 335 334 334 334
353 352 348 346 346 343 349 351 348 346 348 351 351 351 350 349 350 349 347 348 346 347 348 347 347 347 348 349 351 351 350 349 349 349 348 348 348 346 347 347 347 347 347 346 344 345 346 345 344 344 344 345 345 344 345 346 345 345 345 343 343 343 343 343 339 337 340 343 345 346 344 343 342 342 342 342 342 343 342 342 342 343 343 342 340 338 338 337 337 336 335 334 335 335 336 336 335
352 349 345 348 350 348 353 353 351 351 349 351 351 350 350 349 349 349 347 347 346 346 347 348 348 349 349 348 350 351 350 349 349 349 348 348 348 347 347 346 346 347 348 347 345 345 345 344 344 344 344 344 344 344 345 346 345 346 346 344 343 343 343 344 343 341 339 340 344 347 348 347 343 343 344 342 342 342 341 340 341 341 339 339 337 337 338 338 337 336 334 334 336 336 337 336 337
351 348 345 348 349 350 354 354 353 353 352 352 349 350 349 349 349 348 349 346 345 345 346 348 348 349 350 349 349 350 350 350 349 349 348 348 348 348 347 346 346 347 348 348 346 346 345 345 345 345 346 344 345 346 345 345 345 345 345 344 343 344 344 344 343 343 342 337 341 346 348 347 343 343 343 342 343 342 340 337 334 333 333 335 335 337 337 338 337 335 335 336 337 337 337 338 343
351 349 348 349 348 349 353 355 354 352 354 352 350 350 349 350 349 348 348 346 345 345 345 346 348 349 349 349 348 349 349 350 349 349 348 348 348 347 347 346 346 347 349 349 347 346 346 346 344 345 346 344 346 347 345 344 344 344 344 344 344 344 344 344 343 344 344 335 335 343 344 345 345 343 343 342 343 344 343 339 336 334 335 335 335 337 338 338 337 336 336 336 338 339 340 343 346
351 350 352 353 349 349 353 356 356 354 353 351 350 352 350 352 350 347 348 347 346 344 345 345 347 349 349 349 349 348 349 349 349 348 348 348 347 347 347 347 346 347 348 349 348 346 346 346 344 346 346 345 346 347 345 343 344 344 344 344 343 343 344 344 343 343 344 335 330 339 343 343 344 343 343 341 340 343 344 343 342 339 337 334 335 338 337 337 340 341 340 339 342 344 345 346 347
352 351 354 355 352 353 356 357 356 354 353 352 353 353 351 352 350 349 348 347 346 344 345 346 348 349 349 349 348 348 348 348 349 348 348 347 347 347 347 346 346 347 348 348 348 346 346 346 345 347 347 345 345 346 345 343 344 345 344 344 344 344 343 343 343 343 343 338 330 336 343 343 342 342 339 336 336 340 342 343 341 339 338 337 338 342 340 340 344 345 345 345 346 347 345 345 346
353 352 354 356 355 356 356 356 356 354 353 354 354 353 352 351 351 350 348 347 347 345 346 347 347 348 348 349 349 348 348 348 348 348 348 347 347 346 346 346 346 347 347 347 348 347 347 346 345 347 347 346 345 345 345 345 344 345 343 343 345 344 345 346 344 340 335 338 334 334 343 343 341 342 337 334 336 341 341 341 340 340 343 343 344 346 344 344 347 346 346 346 347 346 345 345 346
351 353 355 357 356 356 355 353 355 353 354 354 353 353 354 352 352 351 348 346 346 346 347 348 348 349 348 349 348 348 348 348 348 347 348 347 346 345 345 346 346 347 347 347 347 347 347 344 342 345 347 345 347 346 345 346 344 345 344 344 346 345 349 348 344 336 325 331 336 334 341 343 341 341 339 339 340 341 342 343 344 345 346 346 346 347 347 348 348 347 347 347 347 348 347 346 347
347 353 356 357 357 356 354 354 355 354 354 354 353 354 353 352 352 350 348 346 346 347 348 348 349 349 349 348 348 348 349 349 348 348 348 348 347 345 344 345 346 346 347 347 347 348 348 344 341 343 345 345 346 347 346 346 344 344 345 345 345 345 348 347 341 336 326 329 337 335 337 340 342 341 340 341 341 342 345 346 347 346 347 348 349 349 349 349 348 348 348 348 349 348 348 347 347
349 353 354 356 358 357 355 355 355 353 353 353 352 352 353 353 351 349 348 346 346 348 348 349 349 349 348 348 348 348 349 348 349 348 348 349 347 346 345 345 345 346 347 347 347 348 347 344 343 342 343 345 345 347 347 346 344 344 346 345 345 345 347 342 338 339 337 338 338 335 333 334 342 342 340 343 344 345 347 348 348 348 348 348 350 350 349 350 350 350 348 349 349 347 348 346 345
352 352 353 354 355 356 354 355 355 353 353 353 352 352 353 353 350 349 347 347 346 348 348 348 349 349 348 348 347 348 349 349 349 348 349 348 348 347 346 346 346 347 347 348 347 347 346 345 344 341 341 343 343 345 346 346 345 345 345 344 345 346 343 337 334 337 339 340 337 336 332 332 341 343 342 345 346 347 348 348 349 350 350 350 351 351 350 350 350 349 345 344 343 342 345 344 343
352 351 351 353 355 356 355 356 355 353 354 355 353 348 350 352 350 349 347 347 347 348 349 349 349 348 348 348 348 350 349 350 350 349 349 349 349 348 347 346 347 347 347 348 348 347 347 346 344 341 340 342 342 344 344 344 346 345 344 344 345 345 341 334 329 326 329 334 334 335 334 333 339 343 345 348 348 349 349 349 349 350 350 350 350 350 349 348 349 349 344 343 341 340 345 345 343
351 351 349 350 353 354 357 358 355 354 356 358 354 341 344 352 351 350 348 346 348 348 349 349 349 348 347 347 348 349 350 350 350 349 350 350 350 349 348 348 347 348 348 348 349 348 348 346 344 341 341 342 341 341 342 343 344 345 345 343 344 343 337 330 326 322 326 333 335 334 334 337 340 344 347 350 350 350 350 350 349 350 350 350 350 349 350 350 350 350 348 346 343 343 345 343 343
348 349 347 343 339 344 357 358 355 357 357 359 355 340 341 353 353 352 348 346 348 348 349 348 347 348 347 347 347 349 349 349 350 350 350 351 350 351 350 350 348 349 348 349 350 349 349 347 343 339 340 342 339 339 341 341 341 343 343 343 342 342 333 328 330 330 331 335 337 334 334 340 344 346 347 348 350 350 348 348 350 350 349 350 351 349 351 351 351 350 349 347 343 342 342 340 341
345 340 336 335 331 339 358 359 355 358 356 358 354 341 342 353 354 353 349 348 348 347 349 348 347 347 347 346 347 347 349 349 350 350 351 351 351 351 350 351 350 350 350 350 350 349 349 347 344 341 342 342 340 339 341 342 341 342 342 342 343 342 333 329 334 337 338 339 341 338 336 343 346 346 346 346 349 350 347 347 349 349 348 350 352 349 351 351 349 347 347 348 345 344 341 338 339
341 335 329 330 329 333 348 357 358 359 356 357 354 345 345 352 353 352 349 349 349 347 349 348 348 348 347 347 347 347 347 348 349 350 350 350 351 350 351 351 351 351 350 351 351 350 351 348 345 346 346 344 341 339 342 343 343 342 342 342 342 342 336 334 338 339 342 343 344 341 340 345 346 345 346 345 348 350 348 347 348 349 349 351 352 351 351 351 348 346 346 348 347 346 342 338 337
333 334 329 331 331 328 335 349 359 357 354 355 354 350 347 350 352 351 350 349 349 348 348 348 348 347 348 347 346 347 347 348 349 349 350 350 351 351 350 351 351 351 351 351 351 350 351 350 347 348 348 347 343 339 341 344 344 343 343 342 342 342 339 339 342 342 343 345 345 343 342 345 345 345 346 345 347 350 349 349 349 350 350 351 352 352 351 350 349 348 347 347 346 347 345 340 338
328 328 327 328 330 330 329 338 353 355 353 353 351 351 349 349 352 351 350 349 349 349 348 348 348 348 349 349 347 347 347 347 348 348 349 349 350 351 350 351 351 351 352 351 352 352 352 352 349 347 348 349 346 342 342 343 344 343 343 343 342 342 340 339 344 344 343 344 345 343 342 345 345 344 346 344 347 351 350 351 351 350 350 351 352 351 351 350 350 350 349 348 347 346 346 344 341
329 329 329 327 325 329 331 335 346 351 351 353 350 349 350 349 350 352 351 349 348 348 349 348 349 350 348 348 347 347 348 347 348 348 349 349 349 350 350 351 351 352 352 352 352 352 352 351 351 348 347 350 349 344 343 343 343 344 343 345 342 343 341 337 341 344 344 344 345 344 342 344 345 343 345 345 347 351 351 352 352 350 350 352 352 351 351 351 350 350 348 347 348 347 344 344 343
331 330 329 329 327 328 335 340 345 348 348 349 349 348 348 348 348 351 352 350 349 348 349 349 349 350 348 348 348 348 348 347 347 347 348 348 348 350 350 351 352 352 352 352 352 351 351 351 351 349 346 350 350 345 344 343 344 346 344 345 344 344 342 336 337 343 344 344 344 344 343 344 344 343 344 345 346 350 352 353 352 352 352 353 353 353 352 349 347 349 348 346 346 348 346 345 344
330 329 327 327 327 329 337 343 343 349 349 345 350 350 348 348 347 349 353 350 350 349 348 349 349 349 348 348 348 347 348 346 347 347 348 349 349 349 350 351 351 352 352 352 351 351 350 351 351 349 347 348 349 346 345 343 345 347 346 346 346 346 343 337 339 343 344 343 341 342 344 344 344 344 344 344 345 349 353 353 351 351 353 353 351 351 350 347 347 349 349 348 347 347 346 346 346
329 327 326 324 327 330 337 345 348 349 350 346 351 350 345 347 348 349 352 351 351 351 349 349 348 349 347 347 348 347 347 347 347 348 348 348 348 349 350 351 351 351 352 352 352 352 351 352 351 350 348 347 347 346 346 345 344 346 347 347 347 347 345 341 340 342 344 344 341 341 343 343 344 345 343 343 347 351 351 351 352 351 350 350 349 351 351 349 350 350 349 349 348 347 346 347 348
327 327 324 323 327 326 328 345 354 352 351 350 353 349 341 345 348 349 352 351 352 351 350 350 349 349 349 347 348 347 347 347 347 347 348 348 348 349 349 351 351 352 353 352 353 353 352 351 350 348 348 346 346 347 347 347 345 343 345 346 345 345 345 343 341 342 344 345 344 342 342 342 344 347 346 345 348 351 347 347 351 350 348 348 350 351 351 351 352 351 350 349 348 347 347 349 349
327 327 326 323 327 325 325 342 353 352 352 353 351 338 331 338 344 345 351 351 352 353 353 351 350 350 349 348 347 347 347 347 348 347 347 347 347 349 349 350 351 351 352 353 353 353 353 352 348 346 347 346 346 347 347 347 346 345 343 343 344 342 342 342 342 342 344 344 345 345 344 342 343 349 350 347 347 348 346 347 347 347 347 348 351 351 350 351 351 350 350 348 347 347 348 350 350
325 327 327 325 326 325 329 342 345 337 338 350 349 328 323 334 337 340 351 354 353 354 355 353 351 351 349 349 348 347 348 347 348 347 347 347 348 348 350 351 351 351 352 352 351 352 353 353 349 346 346 347 347 347 347 347 347 346 344 343 345 343 341 342 342 340 343 343 344 345 345 345 344 348 351 348 346 346 346 347 346 347 347 346 349 351 350 350 349 350 350 349 349 348 348 349 349
321 325 326 325 326 324 329 338 334 324 328 348 351 328 321 328 332 340 350 353 354 354 355 353 352 352 350 350 349 347 348 347 348 347 347 347 348 349 351 351 350 350 351 352 352 352 353 354 350 346 346 347 347 347 347 347 347 347 346 345 347 345 342 342 341 339 341 343 343 344 346 347 346 348 351 350 348 346 346 347 347 347 346 348 350 350 350 349 349 351 350 349 351 349 348 349 349
320 325 325 325 326 324 328 333 329 325 330 343 349 335 324 323 330 347 351 348 351 353 354 354 353 353 351 350 349 348 348 347 347 348 347 347 348 348 350 351 350 350 350 351 352 351 353 353 349 345 346 346 346 347 348 347 347 347 347 347 348 346 345 342 339 339 341 342 344 345 346 347 347 348 351 351 349 347 346 346 347 347 347 350 352 350 349 349 350 351 348 346 346 346 349 351 349
325 329 328 327 329 327 332 331 326 329 327 326 336 338 324 321 329 346 351 345 346 349 352 354 354 354 352 350 350 349 348 349 347 347 347 347 348 348 349 350 350 350 350 351 351 352 353 351 347 346 347 346 347 348 347 347 347 348 347 348 348 347 347 345 341 340 343 344 344 346 347 348 348 348 349 350 348 346 346 344 346 347 347 351 351 349 349 350 351 349 345 346 348 349 351 350 349
328 331 330 331 332 331 332 329 326 329 323 318 327 332 323 320 325 335 343 341 340 344 346 350 354 354 353 351 349 348 348 349 347 346 347 347 347 349 349 349 350 349 349 351 352 351 353 351 346 346 346 346 347 347 347 347 347 348 348 348 348 347 346 347 345 342 342 341 341 344 346 346 348 349 348 347 347 347 347 345 347 348 348 350 350 348 349 349 348 346 345 349 351 350 351 350 350
329 331 331 330 331 333 332 330 328 324 321 320 325 329 325 321 322 328 337 339 339 342 343 345 351 354 355 353 350 349 349 348 348 347 346 347 347 349 349 349 350 349 350 351 352 352 353 351 346 346 346 346 347 347 347 347 347 348 348 347 347 346 346 346 344 342 340 335 335 342 344 342 344 348 348 348 348 348 348 348 349 350 350 351 350 348 348 348 348 348 349 350 349 347 349 351 351
328 329 329 325 326 330 326 327 328 321 320 324 327 333 330 322 323 330 336 340 340 342 343 343 346 351 355 354 352 350 349 348 348 347 347 347 348 349 349 349 350 350 350 352 352 351 352 350 345 346 346 346 347 347 348 348 347 348 347 346 346 345 345 345 344 341 339 335 337 342 345 344 344 346 349 349 349 349 349 348 348 350 352 351 350 349 349 347 347 348 350 351 350 349 350 350 350
327 327 325 320 320 323 321 321 323 320 321 327 332 336 331 323 327 334 338 340 341 343 344 344 345 349 352 354 353 351 350 349 348 348 347 347 348 350 349 350 352 352 351 352 351 352 353 350 346 346 347 346 347 347 347 348 348 348 347 347 346 345 344 345 344 342 341 339 341 344 345 345 343 344 348 349 348 349 348 347 346 347 350 349 347 347 347 345 345 346 349 351 351 351 351 351 350
325 324 322 318 317 319 319 319 320 320 321 328 337 337 327 323 330 337 341 343 343 345 346 347 349 350 351 353 352 351 351 350 348 349 348 347 349 349 349 351 352 352 352 352 351 353 354 350 346 346 346 346 346 347 347 348 348 348 348 347 347 346 345 344 345 345 344 343 343 344 345 345 343 343 346 348 348 347 346 346 343 343 345 345 343 341 340 340 340 342 347 350 350 351 352 352 350
325 327 325 319 318 318 318 318 318 319 321 328 336 332 322 322 332 341 344 345 347 347 349 351 352 352 353 352 352 351 351 350 349 350 348 348 350 350 350 351 352 353 352 352 353 353 353 350 346 346 347 347 347 347 347 348 348 348 348 347 346 347 346 345 345 345 346 345 344 345 345 346 345 344 345 347 347 346 345 345 344 342 342 341 339 337 336 339 339 338 342 346 347 350 351 351 350
325 328 324 320 320 320 318 317 319 319 318 323 328 326 324 328 336 343 345 345 347 350 351 351 351 354 354 352 352 351 351 350 349 349 349 350 351 351 352 352 352 352 353 353 353 351 348 347 345 345 346 346 347 348 347 346 347 347 348 347 346 347 347 346 346 343 344 346 346 346 345 345 346 346 347 348 347 345 343 345 345 343 340 338 336 333 333 340 343 342 342 342 343 348 350 350 349
324 323 321 322 325 324 318 317 321 319 316 319 323 321 324 329 332 340 346 344 345 348 348 348 348 351 352 353 353 352 351 351 350 349 349 350 351 352 353 352 351 352 354 352 348 346 344 346 346 346 346 348 348 347 346 345 345 346 347 346 345 346 347 347 347 344 343 345 346 346 346 345 345 345 347 347 346 344 343 344 345 345 344 341 337 334 334 338 340 341 344 343 342 347 349 350 350
323 320 322 326 326 324 321 318 319 318 316 319 321 319 320 324 326 336 343 343 344 344 346 346 347 350 352 352 354 353 352 351 350 351 351 351 353 353 352 352 351 351 351 347 345 347 347 346 347 346 346 349 350 350 348 347 345 346 347 346 344 344 346 348 348 347 346 346 346 346 345 346 345 345 345 345 344 344 344 343 342 343 343 342 340 340 341 342 340 341 345 344 343 345 347 348 350
325 323 326 325 319 319 320 317 317 318 318 319 320 320 321 323 325 331 336 339 341 344 345 345 345 348 351 352 355 354 353 352 351 352 353 353 354 352 350 349 349 349 347 347 350 349 346 344 345 345 345 348 350 352 351 350 348 348 350 349 346 344 345 347 348 348 348 347 347 346 345 345 345 345 345 345 345 345 346 345 341 339 339 339 339 340 343 344 341 342 347 348 347 347 345 345 348
325 324 326 325 321 320 320 320 318 318 318 319 320 321 322 325 330 331 334 338 342 344 346 346 345 347 349 351 355 354 355 354 352 352 353 352 349 347 346 346 346 345 346 351 353 349 344 344 345 344 345 345 346 349 350 351 351 351 351 350 349 346 343 345 347 348 348 347 347 346 344 344 345 345 346 346 345 345 346 346 344 341 341 341 341 342 343 344 343 344 347 349 351 351 348 346 348
322 321 321 321 322 322 322 322 320 319 320 320 322 321 321 328 337 338 338 341 342 344 345 346 346 348 349 351 353 355 356 355 352 351 351 349 347 345 344 344 344 344 345 350 352 350 346 346 345 344 344 344 344 346 347 350 350 351 351 351 351 349 346 345 347 348 348 348 347 346 345 344 345 346 346 346 345 344 345 347 346 344 344 343 344 345 345 347 347 346 345 345 347 349 348 347 349
324 321 321 321 322 320 318 319 321 321 320 321 323 322 323 331 340 343 345 345 344 345 345 345 346 350 353 353 354 356 355 354 353 352 351 350 350 349 347 345 343 343 343 344 348 348 346 347 345 343 343 344 344 344 346 349 349 349 350 351 351 350 348 347 348 348 348 348 348 347 346 345 345 345 346 346 346 346 346 347 346 345 344 344 345 346 345 347 348 347 346 347 348 348 347 347 349
Wind_Speed
3 2 1 2 2 3 3 5 3 3 2 6 5 5 6 5 4 6 8 6 5 6 6 9 11 8 3 4 9 9 10 8 3 1 4 6 12 16 15 15 15 15 16 17 15 15 14 14 14 13 13 12 13 12 12 12 11 12 12 12 12 12 12 12 12 12 12 11 11 10 10 10 10 11 12 12 15 15 14 14 14 13 12 12 12 11 11 10 10 10 10 10 9 8 7 6 5
1 2 3 3 2 3 2 4 1 4 4 7 6 6 5 3 5 7 8 6 7 9 11 13 11 6 4 6 8 10 11 10 7 7 9 11 16 15 15 15 14 15 16 16 15 14 13 13 13 13 13 12 12 12 12 11 11 11 11 12 12 11 11 11 11 11 11 11 10 10 9 9 9 10 10 11 12 14 14 14 13 12 11 11 11 10 10 10 9 10 9 9 8 7 6 4 4
1 3 3 4 3 5 4 4 1 4 5 6 7 6 4 5 8 8 8 8 10 12 13 13 10 6 5 7 4 8 8 8 10 11 12 13 14 14 15 15 14 15 14 15 14 12 12 12 13 13 12 12 12 11 11 10 10 10 10 10 12 11 10 11 11 10 9 10 11 10 9 8 9 9 9 9 10 11 12 12 12 11 11 11 10 10 9 9 9 9 9 8 8 7 5 4 4
2 3 2 4 4 5 4 2 2 3 6 6 6 7 5 7 8 8 8 9 10 11 12 11 9 6 3 6 5 8 8 8 10 10 14 12 12 15 16 16 15 14 13 14 13 12 12 12 13 13 13 12 12 11 10 10 9 10 9 9 11 11 10 10 9 9 9 9 10 10 10 9 9 9 9 9 9 9 10 10 11 11 11 10 10 9 9 9 9 9 9 8 8 7 6 5 4
3 4 2 2 4 2 2 1 3 4 6 6 6 7 7 8 8 9 9 9 8 9 9 7 7 7 8 7 4 6 6 7 10 10 13 12 13 17 16 16 16 14 13 13 13 12 12 13 13 12 12 12 12 11 10 9 9 10 10 9 10 10 10 10 8 8 8 9 9 9 9 9 9 9 9 9 9 9 9 9 10 10 10 10 10 9 9 9 9 9 9 9 8 7 6 6 5
3 4 2 2 3 3 2 3 5 6 6 5 7 8 7 8 8 9 10 9 7 8 7 5 6 8 9 9 7 8 6 6 9 10 13 15 16 16 16 16 15 14 14 13 13 12 12 13 12 12 11 11 11 11 9 8 9 10 11 10 10 9 10 10 8 8 8 9 9 9 9 9 9 9 9 9 10 10 9 9 10 10 10 10 10 10 9 9 9 9 9 9 8 8 7 7 6
2 3 2 4 3 3 1 6 5 7 5 5 7 8 8 8 8 9 9 8 7 7 5 5 6 7 7 6 7 9 5 6 9 11 14 17 18 17 16 15 14 14 14 14 14 13 12 12 12 12 11 11 11 11 10 9 9 10 12 12 10 9 10 10 9 9 8 9 9 9 9 9 9 10 9 9 9 10 10 9 10 10 10 10 10 10 10 10 10 10 9 9 9 8 8 7 6
2 2 3 4 2 3 3 7 5 6 5 5 7 8 8 8 7 6 6 6 6 6 6 6 4 4 6 4 5 7 6 7 10 13 17 19 18 17 15 14 14 13 13 14 15 13 12 11 11 11 11 11 10 10 10 9 9 10 12 13 11 10 10 11 10 10 9 9 9 9 9 10 9 9 9 9 9 10 11 11 11 10 10 10 10 10 10 10 11 11 11 10 9 9 8 7 7
3 3 3 3 2 4 5 6 6 6 7 6 6 8 8 7 5 4 5 6 6 7 7 6 2 3 8 7 8 8 7 9 13 17 19 19 17 16 14 13 13 13 13 14 14 13 12 11 10 11 10 10 10 10 10 9 9 10 12 13 11 10 10 11 10 10 10 9 8 9 9 10 10 9 9 9 9 10 11 11 11 10 10 10 10 10 10 11 11 11 11 11 10 10 9 8 7
3 3 3 3 2 5 5 5 6 6 7 7 7 8 7 6 5 4 5 6 7 8 7 5 4 7 9 10 10 8 9 12 15 18 18 18 17 15 13 13 12 13 13 14 14 13 12 11 10 11 10 10 10 10 10 9 8 10 12 13 12 11 10 11 10 10 10 9 8 8 10 10 10 10 9 10 10 10 10 10 11 10 10 10 11 11 11 11 12 12 12 12 11 10 10 9 8
3 2 3 3 3 5 5 6 6 7 8 7 7 7 6 5 4 5 5 6 7 8 8 5 7 11 11 11 11 9 12 14 16 18 18 17 16 15 14 13 12 12 13 14 14 13 12 11 11 11 9 10 10 10 10 9 8 9 10 12 12 11 10 10 9 10 10 9 9 8 10 10 10 11 11 11 11 11 10 10 11 11 11 11 12 12 12 13 13 13 13 12 11 11 10 10 10
3 2 3 2 2 4 5 6 7 7 8 7 7 6 5 4 2 5 5 6 7 8 7 4 7 10 9 11 11 11 13 14 15 17 17 16 15 14 14 13 12 12 13 13 13 13 12 11 11 11 9 10 10 10 10 9 10 9 9 11 11 10 10 9 9 10 10 10 10 9 10 11 11 11 11 11 11 11 11 11 11 11 11 11 12 12 13 14 14 14 13 12 12 11 11 11 10
3 1 4 1 2 3 6 6 7 7 7 6 6 5 5 4 2 3 5 7 7 6 6 6 9 8 8 11 12 13 14 14 16 17 16 15 14 14 13 13 13 12 12 12 12 13 12 11 12 12 10 9 10 10 10 10 10 9 9 10 10 10 10 9 9 10 10 11 10 9 10 12 12 12 12 12 11 11 11 11 12 12 12 12 12 12 13 14 14 14 13 13 13 12 11 11 10
3 3 5 1 3 2 5 5 6 6 6 6 5 5 5 2 2 2 4 6 6 7 8 9 9 7 10 11 11 14 14 15 16 16 16 15 14 13 13 13 12 12 11 11 11 12 11 11 12 12 11 10 10 10 10 10 9 8 9 9 10 11 10 10 10 10 11 11 11 10 11 13 14 13 12 12 11 12 12 12 12 12 12 12 12 12 13 13 13 13 12 13 12 11 11 11 11
3 4 4 1 3 3 3 3 5 5 6 6 4 5 6 2 2 2 3 5 7 7 8 9 6 4 8 9 10 16 16 17 17 16 15 14 14 13 13 12 12 11 11 10 11 11 10 11 11 11 11 10 10 10 10 11 10 9 9 9 10 11 11 10 11 11 11 11 12 12 12 13 15 14 13 12 11 11 11 11 12 12 13 12 12 12 12 12 13 12 12 13 11 11 11 11 11
3 5 4 3 3 3 3 2 4 5 6 5 6 6 6 4 3 3 2 3 8 8 6 8 4 3 5 7 13 19 19 19 17 16 15 15 14 13 13 12 11 10 10 10 10 9 9 10 11 11 10 10 10 9 10 10 10 10 9 10 10 11 11 10 11 11 11 12 13 14 12 12 14 14 13 12 10 10 11 11 11 12 12 12 12 11 12 12 12 12 12 12 11 11 11 11 11
3 5 4 3 3 3 3 3 2 4 6 6 7 6 5 6 4 4 3 4 9 8 6 7 4 4 6 11 18 22 20 20 18 17 17 16 15 13 12 11 11 10 10 10 9 9 9 9 10 10 10 10 10 10 10 10 11 10 9 10 10 10 10 10 10 10 10 11 13 14 13 12 12 13 13 12 10 10 10 11 11 11 11 11 11 12 13 12 11 12 12 12 12 12 12 11 11
4 4 3 1 3 3 3 4 4 4 6 6 7 6 5 7 6 5 5 6 9 8 8 8 7 7 11 17 21 22 21 20 19 18 17 16 15 14 13 12 11 10 10 11 10 10 9 9 10 10 10 11 10 10 9 8 10 10 9 9 10 10 9 9 9 9 9 9 11 13 14 13 12 12 12 11 10 9 9 11 11 11 11 10 11 13 13 13 12 12 12 13 13 13 12 11 10
3 3 1 1 4 4 3 4 5 4 5 6 7 6 5 7 8 7 6 7 8 8 9 10 11 13 16 20 21 21 20 19 19 18 17 16 15 15 14 13 12 11 11 11 11 11 10 10 10 10 10 11 10 9 9 8 8 9 9 9 10 10 9 9 9 9 8 9 11 12 13 12 12 12 12 11 10 9 9 9 10 11 11 12 13 13 13 12 12 12 13 13 13 13 11 10 9
1 3 1 4 4 4 4 4 5 5 4 5 6 5 5 7 7 7 5 6 6 6 8 10 13 17 19 21 21 20 20 19 19 17 17 16 15 15 14 13 13 12 11 11 11 11 10 10 10 11 11 10 9 8 8 8 9 10 9 9 10 10 9 9 9 9 8 8 11 12 12 12 12 11 11 12 11 10 8 8 10 11 12 13 13 12 12 11 12 12 12 12 12 12 11 9 7
1 3 1 5 1 2 5 4 4 4 2 3 5 6 7 6 5 6 6 5 3 4 7 9 13 19 22 22 21 20 20 19 18 17 17 16 15 14 13 13 13 12 11 11 11 11 11 10 10 11 10 10 9 8 8 8 9 9 9 8 9 9 9 9 9 9 7 8 10 11 12 12 12 11 10 10 10 10 9 9 10 10 11 12 12 12 11 11 12 11 11 12 12 10 9 7 6
1 1 4 4 1 2 5 4 3 2 1 2 4 4 5 5 4 5 6 3 4 4 6 8 13 20 23 23 21 20 20 19 18 17 17 15 15 14 13 13 12 12 12 11 11 11 11 10 10 10 10 10 9 9 8 7 7 7 8 8 8 8 8 8 8 8 7 8 10 11 11 11 11 10 10 9 10 10 10 9 10 10 11 11 12 11 10 12 11 9 10 11 10 7 7 7 8
1 3 5 3 1 3 4 4 3 2 2 2 2 1 1 4 5 6 5 1 4 5 7 10 13 18 21 22 21 20 20 19 18 17 16 15 15 14 14 14 13 13 12 11 11 11 12 11 11 10 9 10 9 9 7 7 6 7 8 8 8 8 8 8 8 8 8 9 11 11 10 9 9 9 10 12 12 11 10 10 11 12 12 11 12 10 9 11 9 8 8 9 8 7 7 7 8
1 2 4 3 3 4 4 4 4 3 3 3 2 1 2 3 3 5 6 4 2 5 7 11 14 17 19 20 19 19 19 18 17 17 16 15 14 14 14 13 13 12 12 11 11 12 12 12 12 11 10 10 10 9 8 8 7 8 8 7 8 7 8 8 8 8 9 11 12 11 10 8 8 8 9 12 12 11 10 11 12 13 11 10 11 10 9 9 9 8 8 8 7 7 7 7 6
3 2 3 3 5 4 3 3 4 4 3 2 2 2 2 1 1 3 7 8 6 6 9 12 16 18 18 18 18 17 17 17 16 16 15 14 14 14 14 13 12 12 12 12 12 12 12 13 14 12 10 10 10 9 9 8 8 8 8 8 8 8 8 8 8 7 8 11 12 12 11 9 8 8 9 11 11 11 12 12 12 11 10 11 11 10 9 8 8 8 7 7 6 6 6 6 6
4 2 3 4 5 4 3 3 3 4 3 2 3 3 3 2 2 2 5 7 7 8 10 13 16 18 17 16 17 17 16 16 16 16 15 13 14 15 14 13 13 12 12 12 11 11 11 13 14 13 11 11 10 9 10 9 9 9 8 8 7 8 8 7 7 6 7 10 12 13 13 12 8 8 11 11 11 13 12 11 11 10 11 10 9 8 8 8 7 7 6 6 5 5 5 6 6
3 3 5 4 5 5 4 4 5 5 3 3 4 3 3 2 4 2 4 6 9 10 11 13 15 17 16 15 16 16 16 16 16 16 15 14 14 15 15 14 13 12 12 12 11 11 11 12 12 13 12 11 11 10 9 9 9 9 8 7 7 8 8 7 7 7 8 9 13 14 13 15 12 8 12 13 13 13 12 11 11 10 9 9 8 8 7 7 7 6 5 5 5 6 6 6 6
2 4 6 7 5 4 5 5 6 6 4 3 3 3 4 5 5 2 5 8 10 11 12 14 14 15 15 14 15 15 15 15 15 15 16 15 15 15 15 14 13 13 12 12 12 11 11 11 11 12 12 12 11 11 10 10 9 9 9 7 7 7 7 7 8 10 11 12 16 16 15 19 16 12 14 14 12 12 11 10 10 9 9 8 8 7 7 8 8 6 7 7 7 8 7 7 8
2 3 3 7 7 3 5 5 5 6 4 5 5 4 7 9 7 5 7 8 10 11 12 14 14 14 15 15 15 15 15 15 15 15 16 15 14 14 14 14 13 13 12 12 12 12 11 11 11 12 12 12 12 12 11 10 10 9 9 8 7 7 6 7 9 12 15 17 18 17 17 19 20 19 17 14 12 11 11 10 10 9 9 9 8 8 8 8 7 6 6 7 7 9 7 7 8
3 3 4 4 6 4 6 5 5 5 3 5 6 4 3 8 8 7 9 10 11 12 12 14 14 13 14 15 15 15 15 15 15 15 15 14 13 13 13 13 13 13 12 13 13 12 12 12 12 12 12 12 12 12 12 11 11 10 10 9 8 7 6 8 11 14 17 17 17 17 18 19 20 20 17 15 13 11 11 11 10 9 9 9 9 9 7 6 6 5 5 5 6 7 6 7 7
2 2 3 2 2 4 6 5 6 5 4 5 7 3 2 6 9 10 10 11 12 12 13 14 14 14 14 15 15 15 16 16 15 15 14 14 13 13 13 13 14 13 12 13 13 13 13 12 12 12 13 13 12 12 12 12 11 11 10 9 8 8 8 10 13 14 17 17 15 17 19 19 19 19 17 16 13 11 11 10 9 9 9 9 7 8 7 5 5 5 5 5 5 6 6 6 6
2 3 2 1 2 5 6 5 6 4 4 6 7 3 2 6 9 10 11 12 12 11 13 14 14 14 14 15 15 15 16 16 15 15 15 14 13 13 13 13 14 13 12 13 13 13 13 12 12 11 12 12 11 11 12 12 11 11 11 9 9 9 9 12 14 14 15 15 13 15 19 19 18 18 17 16 13 10 10 10 9 9 10 8 5 7 7 5 5 6 6 5 4 5 6 6 6
1 2 1 3 3 2 4 5 6 4 3 7 7 4 2 5 9 11 11 12 13 12 12 14 14 14 15 15 15 15 15 16 16 15 15 15 14 13 13 14 14 13 13 13 13 14 14 13 12 11 11 11 12 12 12 12 11 11 11 10 10 10 10 11 13 14 13 12 12 15 19 19 17 17 16 15 12 9 9 9 8 8 8 6 5 6 5 4 5 5 5 5 5 5 4 5 5
2 1 0 1 3 3 1 3 6 6 5 6 8 6 2 4 8 10 12 13 13 12 12 14 14 14 15 15 15 15 15 16 16 16 16 15 15 14 13 13 14 13 13 13 13 14 14 13 13 13 12 12 12 12 13 12 12 12 11 11 11 11 12 11 11 13 13 12 12 16 20 18 16 16 14 15 12 9 9 8 8 8 6 5 5 5 4 4 4 3 3 4 5 5 4 4 4
1 2 2 1 2 2 3 3 4 7 6 6 7 6 4 4 7 9 12 13 12 12 12 13 14 15 15 15 15 15 15 15 15 16 16 16 15 14 14 13 14 14 13 13 14 14 14 13 13 14 14 13 12 13 13 12 12 12 11 11 12 12 12 13 12 12 12 12 12 16 20 17 16 16 14 14 12 8 8 7 7 8 6 5 5 4 3 3 3 3 3 2 3 4 4 3 2
5 5 5 5 5 2 4 4 2 4 6 6 7 6 4 5 7 8 12 14 14 13 12 12 13 15 15 15 15 15 15 15 15 15 16 16 15 15 14 14 14 14 14 14 15 15 15 14 14 15 15 14 13 14 14 14 13 12 12 12 12 12 13 15 15 14 14 13 14 17 19 17 15 15 14 13 11 8 7 6 7 7 6 5 4 4 3 2 2 2 2 2 3 2 2 2 1
6 6 5 5 5 2 3 2 2 2 5 5 5 6 4 4 6 8 12 14 15 15 15 14 15 15 16 16 16 15 15 14 14 15 15 16 15 15 15 14 14 15 15 15 15 15 15 15 14 15 16 15 15 15 15 15 14 13 13 13 12 13 14 16 16 15 14 14 17 18 18 17 15 14 14 13 12 9 8 7 8 7 6 5 4 4 3 2 2 1 1 2 2 1 2 1 1
6 6 6 5 4 2 3 2 1 2 5 2 1 5 6 5 5 8 12 13 14 16 17 17 17 17 17 17 16 16 15 14 14 15 15 16 16 16 15 15 15 16 16 16 16 16 15 15 15 14 16 17 17 16 16 17 16 14 13 13 12 12 15 16 15 15 14 15 18 18 17 17 15 14 14 13 12 9 8 8 8 8 6 6 5 3 2 2 2 1 1 2 2 2 2 1 1
7 5 6 4 2 1 3 3 2 3 4 1 1 5 5 4 5 8 12 12 12 15 17 17 17 17 17 17 17 17 16 15 15 16 16 16 16 16 16 16 16 16 16 16 16 16 16 16 16 15 15 18 17 16 17 17 17 16 13 13 13 12 14 15 14 15 15 14 17 19 18 17 15 14 13 13 11 9 10 10 8 8 7 7 6 4 2 2 1 1 1 2 3 3 3 2 1
6 5 6 4 2 2 0 3 3 3 4 4 5 6 5 4 6 8 11 14 12 13 15 16 17 17 17 18 17 17 17 17 17 16 16 16 17 17 17 16 16 16 16 16 17 17 17 17 17 16 15 16 17 17 17 16 17 17 15 14 14 14 14 15 14 16 17 15 16 19 19 17 15 13 12 13 12 11 14 12 9 9 8 6 5 4 3 2 2 2 2 3 3 3 4 2 1
6 6 7 5 4 4 2 2 3 3 5 5 6 6 3 3 5 6 9 13 13 13 15 16 17 18 18 18 17 17 17 18 18 18 17 17 17 18 18 17 17 17 17 17 17 17 17 17 17 17 16 16 17 18 17 17 17 18 17 15 15 15 17 17 17 17 18 17 16 18 18 17 15 13 12 14 14 14 14 13 12 10 9 7 4 3 3 3 3 3 3 3 3 4 3 2 2
6 6 4 6 7 5 1 3 3 3 3 3 5 5 1 1 3 4 7 10 12 14 15 16 18 18 18 19 19 19 18 18 18 18 17 17 17 18 18 18 17 17 18 17 17 17 17 17 17 17 17 16 16 17 18 18 19 18 18 17 16 16 18 18 19 18 18 19 17 16 16 16 16 13 12 14 15 15 14 12 12 10 9 7 4 3 3 4 4 3 3 3 2 4 3 3 3
5 1 2 4 7 5 2 4 4 3 1 2 5 5 2 1 2 3 5 7 9 13 14 16 18 18 20 20 20 20 19 19 18 18 17 17 17 18 18 19 18 18 18 17 17 17 17 17 18 18 17 16 16 17 18 19 20 18 18 18 17 17 19 19 20 18 17 18 17 16 15 15 16 14 12 13 14 15 15 13 11 11 9 6 4 3 3 3 3 4 4 3 3 4 3 3 3
2 5 4 4 5 4 2 4 4 2 1 4 7 5 4 3 1 3 4 6 7 10 13 15 17 19 20 21 20 20 20 20 19 19 18 18 18 19 19 19 18 18 17 17 17 17 17 18 18 18 18 17 16 16 17 19 20 18 18 18 17 17 17 18 21 19 17 17 17 17 16 15 16 15 13 13 15 15 15 14 12 12 9 6 5 3 3 4 4 4 4 4 4 4 3 3 3
1 6 4 3 3 3 2 4 4 1 4 5 6 4 5 4 2 4 4 5 6 8 10 12 16 19 19 20 21 21 20 21 21 20 19 19 19 19 19 18 17 17 17 17 17 17 17 19 18 18 18 17 17 15 15 17 18 18 17 18 18 18 16 16 20 20 18 18 19 19 17 14 14 16 16 15 16 16 15 14 13 12 10 7 6 4 4 4 4 5 5 4 4 4 3 4 4
3 3 2 2 2 2 2 5 3 1 6 4 2 4 5 4 2 4 3 3 3 4 4 7 12 17 18 19 20 20 20 20 21 21 19 19 19 19 18 17 17 17 17 17 17 16 17 18 19 19 18 17 18 17 15 15 17 18 18 18 19 19 18 17 18 20 21 22 22 20 19 18 15 14 16 17 17 17 15 15 14 12 10 9 8 7 5 5 5 6 5 5 6 5 4 4 4
0 3 5 4 3 2 3 3 2 4 6 2 1 4 6 5 2 0 1 1 2 1 2 3 6 12 16 18 19 19 19 19 20 21 20 19 19 18 17 17 17 17 16 17 17 17 17 18 18 18 18 17 18 18 16 14 15 17 18 19 20 20 20 19 20 22 23 25 24 20 19 21 18 15 15 16 17 17 16 15 14 12 11 10 9 8 6 5 5 5 5 7 8 7 5 5 5
5 6 5 4 3 3 4 3 3 7 4 1 0 3 5 5 3 2 1 0 2 2 1 1 1 6 11 15 17 18 19 19 19 20 21 20 19 18 17 17 18 18 17 17 17 17 17 17 17 17 17 17 18 19 17 15 14 16 17 19 21 21 20 20 21 23 24 25 24 20 18 19 19 17 16 15 15 15 15 16 15 13 12 12 11 9 7 7 7 6 7 7 7 7 6 6 6
7 6 6 6 4 3 5 4 4 6 2 2 1 2 4 5 4 4 2 1 2 4 4 5 2 1 5 10 13 16 19 19 19 20 21 21 19 19 18 17 18 19 19 18 17 17 17 17 16 16 16 16 17 18 17 16 15 15 16 18 20 21 21 21 21 22 23 23 22 20 19 19 20 20 18 17 16 15 15 16 17 16 15 15 13 12 11 10 9 8 8 8 7 8 7 7 7
8 7 7 7 5 4 6 4 4 5 2 3 2 2 4 5 3 2 1 2 1 3 4 3 2 1 1 5 9 13 17 18 19 20 20 21 20 19 19 19 20 20 19 18 17 16 16 17 16 15 14 14 15 16 17 17 16 15 15 17 19 21 22 22 22 21 21 21 21 20 19 19 19 20 20 18 17 15 14 15 17 17 17 17 16 15 14 13 12 10 10 10 9 8 8 8 8
9 8 7 6 5 5 5 3 3 3 2 3 3 3 4 2 1 3 3 2 0 1 0 0 1 1 2 3 7 10 15 18 18 19 20 21 21 20 19 19 20 19 17 15 15 16 16 16 16 15 14 14 14 15 17 17 16 15 14 15 17 20 21 21 21 21 19 19 20 19 19 18 16 17 19 18 18 17 15 14 17 18 18 19 18 17 16 14 14 12 11 11 11 9 9 9 8
7 6 7 7 5 5 4 4 4 4 3 3 4 3 3 2 1 5 4 3 3 3 2 2 1 0 1 3 6 9 12 16 17 18 19 20 20 19 18 19 19 16 15 15 16 16 15 12 12 14 14 14 15 15 15 16 16 15 14 14 16 19 20 20 21 23 22 20 19 18 20 19 17 15 16 17 19 19 16 15 16 17 17 20 20 19 17 15 14 13 12 13 12 10 10 11 9
5 6 7 5 4 6 6 3 3 5 7 3 2 5 4 2 2 3 2 4 6 5 4 3 0 1 1 2 4 7 9 13 16 18 18 18 18 17 17 18 17 15 16 17 15 14 11 9 11 13 13 14 15 14 14 13 14 15 15 14 16 19 20 20 20 23 23 21 20 19 18 19 18 16 15 16 17 18 17 17 16 15 16 18 18 18 17 16 15 14 13 13 13 11 11 11 10
4 5 6 4 3 6 6 4 3 5 7 3 2 5 3 1 1 3 1 5 6 6 2 1 1 1 0 1 3 5 7 11 15 16 17 17 17 18 18 17 15 15 16 15 12 10 9 10 13 14 15 16 15 14 13 13 12 14 15 15 15 17 20 20 19 20 21 21 21 21 20 19 18 18 17 16 16 16 17 19 19 18 17 17 17 16 15 15 15 15 14 14 14 13 12 12 12
8 4 2 4 5 6 5 5 5 5 6 3 2 3 2 2 2 3 2 6 5 6 3 1 1 2 2 3 5 7 8 11 14 16 17 18 18 17 16 16 14 14 14 11 10 12 12 13 15 15 14 15 15 15 14 14 13 13 15 15 15 16 19 20 19 18 19 20 21 21 21 20 18 18 17 17 17 16 16 18 19 19 18 18 18 17 16 16 16 16 14 13 13 14 14 14 12
10 7 4 5 5 3 3 4 5 4 4 4 2 2 2 1 2 0 4 5 5 6 5 2 2 4 4 4 6 9 10 12 14 15 16 17 16 14 14 14 13 11 11 11 12 13 13 12 14 14 13 13 14 15 15 15 14 14 14 14 15 16 18 20 20 19 19 19 20 20 20 20 19 18 18 18 19 18 16 15 16 16 16 16 16 16 16 16 17 16 15 13 12 13 14 14 13
10 9 9 8 5 3 3 4 5 5 4 3 2 3 2 2 2 3 3 6 5 6 5 4 4 5 5 6 6 8 10 12 13 14 14 15 15 14 13 14 13 11 11 13 14 14 13 11 11 13 14 13 13 15 15 16 15 15 15 15 15 16 17 19 20 20 19 19 19 20 20 20 20 19 18 18 19 19 18 16 15 15 15 15 15 15 16 15 16 17 17 15 14 15 16 15 13
9 10 9 10 8 6 6 6 5 4 4 4 3 3 1 3 1 1 3 5 5 6 5 5 6 6 6 6 6 7 9 11 12 13 13 13 15 14 15 16 16 14 13 14 14 13 12 11 11 11 12 13 13 14 15 16 16 15 16 16 15 15 16 17 19 20 20 20 19 19 20 20 20 20 20 19 18 19 18 18 17 17 16 16 16 17 16 16 16 17 17 16 15 15 17 16 14
Wind_Direction
79 61 359 332 335 303 247 239 221 184 172 89 86 97 82 65 91 94 96 107 113 102 105 121 122 123 114 91 105 84 46 48 42 62 114 123 135 143 141 139 143 148 145 136 135 135 137 142 139 135 136 137 135 138 141 141 139 136 134 133 133 132 134 134 138 142 147 147 144 147 145 144 146 144 144 144 139 138 141 139 140 142 141 140 140 140 141 143 144 146 149 149 145 142 140 137 133
44 359 338 327 300 292 253 230 218 126 120 92 78 74 95 106 94 74 71 78 87 107 121 120 113 99 85 104 111 89 61 53 63 82 100 128 132 134 140 141 142 144 145 135 131 133 138 143 139 135 137 138 138 139 140 140 138 134 133 135 134 133 136 135 139 143 145 142 141 147 146 146 148 146 146 149 145 144 148 147 147 148 146 147 146 145 144 144 149 152 152 151 148 145 145 139 130
307 339 338 333 271 258 261 234 216 110 102 91 85 75 98 98 82 71 69 78 93 117 123 119 109 89 116 133 94 72 82 76 81 99 114 131 134 138 142 141 141 140 141 134 132 138 142 147 142 137 138 140 141 139 138 138 135 130 129 131 129 131 136 135 138 142 145 141 139 143 143 147 151 151 151 154 153 151 150 149 152 153 152 152 152 151 148 149 153 156 155 154 149 145 143 133 125
350 332 334 333 261 233 247 206 83 89 95 91 92 80 77 82 84 84 84 90 106 125 126 125 103 67 92 116 71 71 95 95 93 113 126 138 145 146 144 142 142 141 142 137 138 143 146 149 143 139 140 140 140 137 139 140 135 128 125 124 124 132 135 131 136 142 145 140 137 140 141 146 151 151 154 160 160 157 152 151 155 157 157 155 155 153 153 156 157 157 155 155 151 144 141 131 127
360 325 337 316 269 245 279 115 76 82 85 84 95 88 79 82 90 94 95 99 117 130 125 121 99 91 84 74 49 82 101 103 108 125 132 142 148 145 144 141 142 145 145 138 140 146 150 149 142 142 141 141 140 137 142 144 137 127 125 123 124 133 131 129 137 143 144 139 137 141 141 143 146 146 149 160 162 161 160 158 157 157 159 159 158 157 159 161 160 158 156 158 152 144 141 136 133
353 323 315 268 280 298 268 115 89 89 68 56 92 93 90 90 93 98 102 104 114 121 117 98 102 120 96 72 56 69 94 109 119 133 137 143 144 145 142 140 143 147 147 144 146 151 156 149 139 141 140 140 141 139 139 139 133 124 121 122 128 133 128 128 136 137 139 138 138 141 138 139 142 140 142 152 156 157 157 158 158 159 161 162 161 160 161 161 161 160 158 157 149 144 141 137 137
351 328 279 256 234 251 196 104 91 94 65 36 85 98 97 100 102 107 110 111 117 116 116 99 106 122 99 98 77 64 81 107 126 137 141 145 144 144 140 140 145 146 151 155 154 154 157 148 139 140 138 141 145 140 135 131 127 121 116 119 128 131 126 128 132 130 131 133 135 137 135 138 139 137 141 147 150 149 150 153 155 156 159 161 162 161 159 157 159 159 157 154 148 145 142 140 140
346 320 281 281 202 190 113 100 87 89 85 61 79 94 103 112 113 108 100 99 120 119 120 112 104 98 91 107 83 73 90 107 128 137 141 143 143 143 139 142 145 146 153 157 154 151 150 145 142 141 140 143 145 139 132 132 128 120 114 118 123 124 126 127 126 124 123 125 129 134 135 137 138 139 143 145 148 148 146 148 150 152 156 158 159 160 159 157 157 157 155 149 147 145 143 144 140
323 298 264 279 192 138 107 106 99 90 95 96 92 100 110 117 108 95 84 84 109 114 111 111 85 87 102 100 89 94 104 115 129 135 140 141 142 142 140 147 148 149 153 156 154 148 144 141 142 142 145 145 144 140 135 137 131 119 114 116 116 117 123 122 123 121 118 121 126 131 132 133 137 138 140 143 145 141 139 142 147 148 150 151 151 155 158 156 151 150 149 145 144 144 142 141 139
294 271 269 268 195 130 116 111 109 101 95 98 106 118 123 123 111 84 73 86 108 110 105 104 96 109 112 100 94 101 112 126 132 133 139 141 143 142 143 150 151 152 155 157 155 152 146 139 142 145 152 152 148 145 141 140 130 118 116 116 113 115 118 119 123 117 114 122 128 131 130 129 131 130 135 142 141 135 134 139 142 139 139 141 141 145 149 147 142 141 142 141 142 141 139 138 138
261 218 289 270 179 130 116 113 113 109 107 109 112 126 134 133 121 90 84 95 104 111 113 106 104 113 110 96 91 103 120 130 133 136 141 142 143 143 145 149 151 155 159 161 159 156 150 143 144 147 155 157 151 145 141 141 130 119 118 116 113 115 114 118 121 116 118 126 131 136 133 130 127 126 132 138 135 133 133 136 136 132 134 136 137 139 140 138 136 137 137 138 137 137 135 132 132
270 174 253 237 135 107 110 115 116 116 120 121 118 133 142 144 136 101 104 106 109 119 111 102 127 126 113 102 103 118 130 133 137 141 142 142 143 145 148 149 152 155 160 163 160 159 156 150 149 150 155 156 149 146 146 144 132 128 128 120 116 115 111 117 120 119 125 128 131 136 133 130 129 127 128 129 129 130 132 135 134 132 134 134 135 135 134 136 137 135 135 137 135 134 129 126 127
298 325 266 214 76 99 116 117 121 125 125 112 105 127 154 158 144 90 88 105 111 109 92 108 138 131 106 108 120 132 136 139 144 144 143 144 145 148 149 151 153 154 158 161 161 163 162 155 155 155 156 155 151 150 153 148 135 136 139 130 126 121 115 120 123 125 127 124 126 131 130 129 128 127 125 127 128 130 133 134 134 133 134 132 133 134 133 138 137 134 136 138 135 132 126 124 126
310 323 291 120 93 113 114 119 133 133 119 107 96 125 163 156 121 88 80 105 95 83 93 119 133 120 119 125 135 143 144 147 148 146 145 146 146 149 151 152 152 155 157 162 166 167 164 159 160 159 157 158 154 156 158 150 142 145 144 137 137 132 127 128 126 128 127 122 122 123 125 124 124 125 127 130 130 132 134 135 135 134 133 131 132 134 135 139 135 132 135 135 133 130 127 127 129
318 308 285 154 126 135 122 116 130 125 111 116 105 134 156 124 137 134 70 84 93 103 113 124 123 107 142 149 150 151 148 149 150 147 148 146 147 150 153 153 154 157 158 162 169 169 166 162 164 162 163 162 153 157 160 151 148 154 150 145 145 140 137 136 133 132 128 122 120 119 120 120 120 122 124 124 122 127 131 133 136 135 134 132 132 134 137 140 134 132 134 133 132 132 131 133 137
310 294 260 172 142 147 143 132 132 122 111 113 116 143 148 124 154 133 77 79 111 129 130 131 113 69 142 147 144 148 147 148 150 148 149 147 149 151 155 157 156 160 160 162 167 168 167 164 167 167 166 162 155 159 161 154 151 154 154 154 154 148 145 143 136 134 131 124 122 120 115 114 116 117 117 116 119 125 130 133 135 135 134 133 133 135 138 138 136 136 135 135 135 135 137 140 141
282 270 241 174 142 129 122 127 118 110 113 112 127 157 148 131 149 131 135 124 120 130 121 125 111 77 121 129 137 144 145 148 149 149 151 151 153 156 160 163 163 166 167 167 170 171 171 169 169 171 168 163 162 164 165 161 152 151 156 162 162 153 149 142 132 131 132 128 124 120 116 116 116 115 113 114 120 124 128 133 135 137 138 136 135 138 138 136 137 135 133 133 135 135 137 137 135
259 252 236 172 104 103 81 78 80 104 117 109 127 159 157 143 151 150 150 131 123 125 118 117 103 98 117 126 137 143 146 150 151 153 155 157 160 163 167 171 171 172 174 174 176 176 174 173 173 173 171 167 168 167 168 163 151 151 156 162 165 161 152 139 132 130 135 136 129 122 120 123 122 119 117 119 124 127 131 134 137 141 142 142 139 137 136 135 134 132 132 132 132 130 128 127 126
279 284 238 69 57 82 73 68 83 94 104 110 126 149 163 149 151 160 152 133 133 123 124 127 111 114 126 132 140 145 149 153 156 159 160 163 165 168 171 175 176 177 180 179 178 178 177 178 174 175 177 174 172 170 170 163 157 159 159 163 164 162 154 142 141 138 141 147 138 127 125 129 129 126 124 125 129 132 138 139 140 142 142 143 138 136 136 135 133 131 130 129 126 124 122 124 126
317 285 219 85 64 94 97 85 87 81 95 111 119 133 151 151 157 165 150 135 141 122 126 137 130 131 138 142 145 150 154 158 160 164 165 167 168 170 172 175 180 181 183 182 181 181 180 180 176 177 182 180 174 172 174 169 170 169 164 168 164 158 155 151 154 148 147 152 147 139 134 136 136 130 126 129 131 130 138 138 134 136 137 138 136 135 132 129 127 125 125 122 119 120 124 129 138
294 274 32 67 44 112 98 104 100 83 82 96 121 137 137 149 176 170 156 137 134 139 132 137 144 145 147 150 152 156 159 162 165 168 169 170 170 172 174 176 179 181 182 182 185 186 184 183 180 180 183 184 179 176 182 176 174 173 167 170 165 159 160 160 160 155 154 155 153 148 143 142 140 136 134 137 137 136 141 137 131 133 135 137 136 130 127 126 123 122 123 120 119 124 131 142 161
15 21 51 55 287 83 91 115 119 88 86 126 147 137 116 152 198 190 181 135 84 124 131 129 145 152 154 155 156 159 163 165 168 171 172 173 173 172 174 174 175 180 183 182 187 190 187 186 183 182 182 184 183 178 184 179 169 171 169 169 166 162 163 165 163 162 164 162 160 151 146 144 140 139 143 149 149 145 144 140 138 139 137 136 132 126 129 130 125 126 129 129 133 145 156 166 175
44 71 67 59 41 75 98 129 137 134 170 153 126 87 120 180 199 196 196 104 69 96 123 128 142 154 156 156 159 162 166 167 169 172 174 175 175 175 174 173 175 180 185 184 187 190 189 188 185 180 179 184 185 178 179 180 171 169 170 164 163 167 165 165 166 172 173 169 167 153 143 141 135 138 149 153 150 145 143 142 142 138 134 134 131 131 137 133 134 147 146 147 159 168 176 179 176
39 53 68 77 92 87 100 131 144 155 162 137 108 109 181 198 200 177 178 195 169 114 126 133 139 151 156 158 162 164 167 169 170 172 174 176 177 177 175 174 176 180 185 185 186 189 190 190 185 180 180 185 184 178 177 178 176 171 170 163 162 165 160 162 170 177 178 174 171 156 144 138 133 138 146 146 143 144 146 143 138 134 134 139 138 141 148 143 147 156 150 154 168 171 182 189 188
67 63 90 110 126 108 101 123 142 155 155 152 171 159 148 181 249 178 178 190 176 134 137 140 141 150 158 163 165 165 167 169 169 171 173 176 177 177 176 176 177 181 183 184 184 187 191 191 187 183 182 185 180 179 179 175 175 172 170 169 166 161 156 168 177 177 177 173 170 158 144 134 132 141 143 142 144 145 145 140 137 138 142 143 138 142 149 148 150 153 151 154 168 174 183 196 196
56 103 132 134 143 144 153 146 152 166 158 185 198 167 149 174 238 207 182 179 154 144 148 147 148 153 159 165 167 167 168 170 170 171 173 174 176 178 178 179 179 182 182 182 183 183 190 193 189 184 181 183 181 179 180 176 176 176 173 173 173 167 165 178 182 171 166 165 166 160 150 139 137 150 148 146 146 142 139 138 139 139 140 139 136 143 146 146 147 151 156 158 175 184 185 199 195
53 124 127 132 146 152 177 169 164 176 163 200 218 181 155 173 232 201 150 168 161 155 155 155 157 156 160 166 168 170 169 171 172 171 173 172 176 179 180 181 180 181 181 182 183 183 189 191 188 185 180 181 182 180 181 179 177 178 178 176 177 175 174 183 178 162 154 159 165 161 154 145 139 152 153 146 144 141 139 140 141 139 139 141 137 139 143 143 145 149 157 160 174 177 177 184 177
104 145 134 138 144 143 179 177 168 184 175 181 217 212 187 186 226 198 140 165 169 163 160 162 163 158 162 165 166 171 170 171 173 173 174 174 177 180 181 182 181 181 181 183 185 185 187 188 188 188 182 180 184 183 180 182 180 180 182 181 181 176 174 184 176 164 159 162 164 158 156 152 146 155 155 147 147 145 145 146 144 141 141 142 135 138 144 139 134 137 140 139 147 151 156 163 155
158 201 190 146 151 160 185 183 178 200 183 162 196 225 213 201 206 187 160 166 168 167 163 163 165 161 163 164 166 171 171 172 174 177 176 176 177 179 181 180 180 181 182 184 186 186 186 187 191 191 185 183 186 184 180 183 183 182 185 185 184 175 173 176 166 163 161 160 161 157 158 159 155 157 154 150 153 152 151 150 147 146 143 143 140 142 140 132 127 131 131 126 133 137 144 155 152
180 228 275 166 157 159 175 180 185 204 171 163 208 240 202 186 181 173 170 170 169 168 167 167 165 164 167 166 168 171 172 174 175 177 176 176 177 178 179 178 179 179 179 184 187 186 186 190 195 194 189 189 190 185 181 183 183 186 188 188 184 174 172 168 156 156 156 155 159 159 158 160 158 155 154 154 155 157 157 153 149 149 147 142 140 140 134 129 131 130 133 132 134 138 149 159 156
232 242 257 212 127 119 150 173 183 190 156 175 227 260 104 144 158 168 176 176 174 172 172 172 166 168 171 169 171 172 174 176 175 174 175 176 177 177 179 179 180 180 180 183 186 186 188 194 200 199 196 194 193 185 183 186 186 189 190 190 183 172 172 164 154 153 154 153 158 163 160 158 158 155 157 158 155 157 160 156 152 154 153 142 139 142 134 130 129 123 124 130 140 143 153 161 161
261 251 172 80 26 113 135 170 196 202 150 179 225 266 96 136 155 165 175 181 184 183 176 175 172 170 172 173 175 175 175 178 177 176 176 178 178 179 180 181 182 182 182 182 185 187 188 197 202 203 202 198 194 186 186 190 190 192 192 190 179 170 174 165 157 157 156 154 157 167 164 159 160 160 162 163 158 157 161 161 160 161 157 144 140 143 130 123 127 128 121 114 129 140 152 160 160
220 273 81 48 3 78 125 163 191 208 171 184 214 267 33 127 152 161 172 184 191 192 182 179 178 172 173 177 178 178 178 179 182 182 181 182 183 183 181 183 185 185 186 184 187 188 188 198 200 197 201 202 199 192 188 191 192 194 193 191 182 172 174 171 167 164 159 159 162 171 170 163 164 164 167 169 163 159 163 163 165 165 157 147 145 139 128 124 122 131 124 108 111 121 148 159 159
173 273 350 63 355 356 63 135 164 189 214 211 211 242 297 122 150 163 172 187 195 196 189 183 181 177 176 179 181 182 184 185 186 187 186 185 186 186 184 185 186 187 188 188 190 190 189 198 199 194 197 202 205 198 193 194 193 195 195 193 189 180 175 176 177 172 166 166 170 176 174 169 170 169 171 175 169 165 165 163 167 169 161 154 148 137 136 133 117 122 129 113 109 112 127 146 158
299 317 318 342 340 350 16 38 142 185 222 233 217 231 246 166 163 169 171 183 198 200 198 189 183 182 182 185 186 184 188 191 190 189 188 187 187 187 187 187 188 188 190 190 192 192 190 197 201 199 197 197 205 203 197 198 196 197 198 195 193 188 180 178 182 179 173 171 177 182 176 173 176 175 175 179 174 167 166 167 173 171 163 158 153 149 151 141 119 117 127 115 98 106 115 121 150
320 323 315 319 319 335 7 14 122 202 239 239 234 239 235 195 181 178 173 178 192 200 202 197 185 186 191 194 193 188 191 193 189 189 189 188 188 188 189 189 189 191 191 192 194 195 196 198 201 205 201 195 204 206 199 198 199 198 199 198 197 195 189 185 187 184 177 178 184 184 180 178 181 180 180 183 178 167 165 171 174 170 164 162 155 153 154 157 152 121 135 136 96 97 130 133 165
301 302 294 297 300 325 26 32 118 229 256 243 239 250 252 224 194 186 181 179 189 196 198 198 192 193 198 201 199 194 194 194 188 188 189 190 190 189 190 191 191 191 193 196 198 199 201 201 202 210 206 198 202 206 202 199 198 198 200 200 198 199 197 191 190 187 181 188 190 183 182 183 183 186 186 186 185 174 167 172 172 166 160 163 157 153 162 174 175 161 214 172 138 168 181 183 200
278 284 289 286 288 344 65 78 114 212 251 248 239 266 257 230 208 191 186 187 193 197 197 198 196 198 202 205 204 199 197 195 189 188 191 193 192 192 192 193 193 193 196 200 201 201 203 201 204 212 211 206 207 207 205 202 199 197 199 200 197 202 204 193 189 189 185 193 195 186 184 187 187 190 191 191 189 177 169 173 176 172 165 173 176 173 187 196 190 190 226 223 207 215 223 243 306
270 270 275 274 298 12 100 128 148 191 241 294 329 284 265 222 209 194 191 198 201 201 202 201 199 200 203 206 207 204 200 197 194 193 193 194 195 194 194 197 197 196 198 201 201 202 202 200 204 211 212 212 214 211 208 206 204 200 197 199 196 198 203 195 190 191 186 192 199 194 190 192 192 193 197 197 187 180 183 176 175 182 180 185 189 192 207 220 224 208 227 228 222 232 234 243 316
254 262 268 274 326 320 295 129 145 191 245 304 316 292 272 223 203 199 199 203 205 205 208 208 206 206 206 207 208 207 203 200 199 197 194 194 195 195 196 198 198 197 196 197 198 199 200 202 207 212 215 216 215 214 212 207 208 206 202 202 198 195 198 192 190 193 191 190 197 200 199 197 196 194 198 198 188 193 198 187 184 192 194 194 195 211 225 234 234 222 231 226 224 240 239 234 290
241 244 259 283 307 309 335 103 137 194 223 257 286 282 260 219 209 210 195 195 202 203 206 211 212 212 212 212 211 210 208 203 201 201 198 195 195 196 198 198 197 197 197 197 197 197 199 203 210 214 216 218 216 216 214 209 210 209 204 204 200 199 201 194 192 196 196 193 194 201 204 201 199 195 197 201 199 202 202 198 199 200 203 203 201 228 234 233 237 233 232 228 227 239 244 253 265
244 226 250 294 303 311 335 159 181 230 212 211 265 277 236 172 230 215 174 182 197 197 203 212 212 212 213 215 214 211 210 206 204 205 201 198 196 196 197 198 198 198 199 198 196 197 198 201 208 212 214 216 215 216 216 212 213 211 204 202 200 200 202 197 195 196 198 198 196 199 203 206 205 199 200 204 205 207 205 205 207 206 213 215 213 234 237 237 238 234 235 229 232 237 233 255 266
248 122 33 312 300 305 237 204 230 276 322 165 240 273 296 246 242 169 166 194 201 196 205 213 211 211 211 213 213 210 210 208 206 207 205 201 198 196 198 200 200 199 199 197 196 197 196 199 206 211 213 214 214 216 216 215 216 214 205 202 201 201 201 200 197 195 199 201 200 200 201 207 208 202 201 206 208 209 208 208 211 213 217 220 227 236 236 234 224 225 228 204 212 233 225 237 259
255 56 9 311 301 293 239 237 258 295 312 188 208 251 284 273 257 121 169 215 212 204 209 211 211 211 211 211 211 210 208 205 204 206 207 204 200 199 199 200 201 200 197 195 196 197 195 201 208 211 214 215 215 216 217 216 216 213 206 202 204 204 202 203 201 196 198 202 202 204 203 206 211 205 199 206 213 213 211 210 214 219 216 211 219 226 227 224 214 228 236 218 226 240 228 233 252
349 41 338 307 299 274 220 250 264 297 274 227 182 214 265 264 201 151 184 235 234 220 215 211 211 211 211 210 210 210 207 204 203 203 206 206 204 202 201 201 201 198 196 195 195 195 196 206 212 212 215 218 220 220 219 218 216 213 209 205 206 205 199 202 204 199 199 201 202 205 205 205 211 211 206 207 213 216 217 215 217 223 218 210 216 220 227 228 218 232 244 242 242 238 231 248 261
43 44 263 186 213 230 222 254 265 247 262 265 144 205 267 288 227 177 194 250 258 227 204 198 205 210 211 210 208 208 206 204 204 202 203 206 206 204 202 201 200 197 195 195 194 192 196 208 215 213 216 219 223 227 226 221 216 213 211 207 208 208 202 200 202 202 204 207 206 207 210 209 210 214 214 213 214 215 217 218 220 223 220 216 221 220 226 240 244 248 250 240 234 232 236 252 262
90 212 211 184 198 217 237 258 269 247 248 272 103 237 268 294 294 106 96 324 316 252 139 124 178 200 208 209 207 206 203 202 203 202 201 205 206 204 201 200 198 195 194 193 194 192 195 209 216 215 217 220 224 230 232 228 220 216 212 209 209 211 208 206 204 204 208 211 211 209 214 217 216 215 215 216 217 216 217 220 221 220 221 221 223 225 232 247 253 254 248 242 244 243 240 243 250
227 229 214 211 203 210 238 225 238 258 254 90 120 250 263 274 296 346 37 346 270 250 270 7 138 179 196 207 208 206 203 201 200 200 199 201 202 201 200 199 195 193 193 192 194 192 196 210 217 216 219 222 224 229 233 233 225 220 216 211 210 210 210 211 210 208 209 211 211 209 212 217 218 217 215 214 216 215 218 224 223 219 223 225 224 229 235 238 241 243 243 245 250 250 246 248 253
225 226 217 229 215 208 242 225 227 260 254 123 165 243 262 270 283 296 297 267 257 266 284 297 300 153 177 198 206 205 204 201 198 198 197 195 196 197 197 195 191 192 194 195 196 194 197 209 217 217 220 223 226 229 233 233 227 222 219 214 210 210 210 211 212 211 210 211 211 210 212 216 219 217 215 216 216 215 219 228 228 223 227 230 230 232 240 247 249 247 245 244 244 247 250 252 255
216 215 211 230 232 234 248 233 232 253 218 130 138 222 259 269 275 290 345 33 337 294 290 292 287 281 198 196 205 205 202 203 199 196 195 191 190 194 194 192 192 194 197 198 195 190 194 208 217 219 221 225 228 230 233 234 230 223 220 217 211 210 211 212 211 210 210 212 212 212 213 218 222 220 218 218 218 217 221 230 233 231 233 237 239 243 250 256 256 250 246 246 245 246 251 254 260
208 224 229 241 255 265 270 265 255 253 176 141 162 212 259 284 99 115 108 97 117 258 271 345 220 231 241 219 215 209 203 202 199 194 193 188 186 189 190 190 193 195 198 194 187 188 197 212 219 220 222 225 229 232 232 234 234 228 222 221 214 208 211 212 210 207 207 211 214 214 215 216 220 221 219 219 220 220 220 225 233 235 236 241 245 249 251 253 256 254 248 248 248 249 255 262 265
197 216 238 247 258 265 275 294 306 314 284 213 192 225 268 298 181 154 158 176 186 201 203 209 232 195 241 233 218 212 205 200 195 190 188 185 183 184 185 189 195 195 187 181 187 204 214 221 226 226 225 225 227 230 231 233 235 232 227 224 218 210 209 210 211 210 207 209 212 215 218 217 215 216 216 218 222 224 221 222 230 235 240 245 249 251 250 244 245 250 251 252 252 250 255 261 262
168 197 226 234 270 272 266 260 275 284 271 240 198 244 249 251 232 155 173 217 189 189 208 199 357 5 265 234 206 204 201 194 189 185 182 180 178 178 182 189 193 186 182 191 209 226 230 223 223 227 226 225 226 225 227 229 231 232 233 230 223 214 210 209 212 215 214 214 214 214 217 219 216 215 216 220 224 225 223 222 227 232 239 247 250 250 248 240 239 244 248 252 253 248 249 255 257
198 210 205 171 219 263 268 260 232 244 256 245 229 265 275 250 233 88 5 258 193 168 192 168 74 27 120 129 155 180 184 181 182 177 173 170 168 174 183 188 189 189 200 214 220 219 221 217 213 213 214 219 223 222 222 224 227 229 230 232 228 218 214 211 212 217 219 219 218 216 215 216 217 218 218 220 222 223 224 227 232 234 234 239 241 240 240 237 239 243 245 251 254 251 247 249 253
239 268 176 177 228 226 215 245 253 248 257 255 224 268 296 267 234 121 189 249 199 156 151 130 103 85 79 96 128 151 159 165 168 161 157 160 164 175 187 189 190 202 216 216 199 199 214 218 215 211 209 214 220 222 222 221 222 223 223 225 226 220 216 214 213 216 218 218 218 216 215 214 215 217 219 218 216 217 223 231 238 239 236 236 237 234 232 233 236 240 244 250 255 255 251 248 251
230 261 229 222 262 259 202 232 255 263 267 264 236 233 233 222 343 10 181 196 182 152 138 118 81 86 86 92 121 144 150 158 165 160 160 168 175 185 192 190 191 200 201 186 188 209 220 216 217 216 211 214 220 224 226 223 219 219 220 221 223 222 220 218 216 214 215 216 217 216 216 215 215 216 219 220 219 217 221 227 234 236 233 234 237 234 232 234 238 239 240 242 244 249 253 252 250
200 223 222 217 227 255 251 234 247 268 275 263 250 251 232 97 359 301 156 146 151 138 130 126 97 88 89 91 114 142 149 154 161 164 170 178 185 188 188 192 196 196 191 181 188 212 221 211 210 212 211 217 221 222 226 227 223 220 218 219 221 224 223 220 218 216 214 215 217 218 217 217 218 217 218 221 221 220 222 225 229 230 229 231 232 231 230 231 236 239 241 243 240 242 248 251 250
206 207 214 218 210 217 231 220 221 244 262 271 268 248 188 112 154 218 117 119 134 133 129 121 107 98 97 99 114 137 150 155 157 161 167 171 179 182 181 189 195 193 196 194 193 210 222 213 207 207 212 218 215 212 216 223 229 229 224 219 217 220 223 220 217 217 216 216 217 219 219 218 219 219 219 221 221 221 225 228 230 231 231 232 232 232 231 229 233 240 243 243 243 245 250 249 246